"2016-01-20 00:00:00",1300251,8.09,195.6,6.448,1.28,7.993,100.5613,0.732,1.989,55.08,0,109.7,13.33,1.49,157.6
"2016-01-20 00:00:30",1300252,8.19,200.1,6.264,1.245,7.925,100.563,0.736,2.006,55.21,0,109.7,13.33,1.49,162.1
"2016-01-20 00:01:00",1300253,8.42,198.8,6.597,1.23,7.684,100.5639,0.738,2.005,55.37,0,109.7,13.33,1.49,160.8
"2016-01-20 00:01:30",1300254,8.05,198.5,6.566,1.24,7.722,100.5656,0.743,2,55.43,0,109.7,13.33,1.50,160.5
"2016-01-20 00:02:00",1300255,8.22,197.5,6.555,1.206,7.887,100.5679,0.748,1.978,55.38,0,109.7,13.34,1.50,159.5
"2016-01-20 00:02:30",1300256,8.08,197.5,6.977,1.272,7.915,100.569,0.751,1.992,55.43,0,109.7,13.33,1.51,159.5
"2016-01-20 00:03:00",1300257,7.94,201.6,5.815,1.233,7.886,100.5707,0.756,2.035,55.53,0,109.7,13.33,1.51,163.6
"2016-01-20 00:03:30",1300258,7.869,203.8,6.312,1.222,8.15,100.5707,0.756,2.041,55.69,0,109.7,13.34,1.51,165.8
"2016-01-20 00:04:00",1300259,7.89,204.7,6.326,1.215,7.733,100.5724,0.76,2.016,55.82,0,109.7,13.34,1.51,166.7
"2016-01-20 00:04:30",1300260,7.424,205.7,6.191,1.317,7.81,100.5744,0.765,1.999,55.97,0,109.7,13.34,1.52,167.7
"2016-01-20 00:05:00",1300261,6.593,199.5,6.331,1.172,5.457,100.578,0.774,1.851,55.89,0,109.7,13.34,1.53,161.5
"2016-01-20 00:05:30",1300262,6.607,200.3,6.4,1.202,5.732,100.5846,0.791,1.832,55.84,0,109.7,13.34,1.55,162.3
"2016-01-20 00:06:00",1300263,6.856,202.3,7.17,1.271,7.068,100.5865,0.796,2.011,56.06,0,109.7,13.34,1.55,164.3
"2016-01-20 00:06:30",1300264,7.455,207.1,6.589,1.281,8.47,100.5902,0.806,2.027,56.11,0,109.7,13.34,1.56,169.1
"2016-01-20 00:07:00",1300265,7.504,205.7,6.684,1.291,8.23,100.5931,0.813,2.048,56.12,0,109.7,13.34,1.57,167.7
"2016-01-20 00:07:30",1300266,7.289,204.2,7.007,1.266,8.1,100.601,0.833,2.012,56.04,0,109.7,13.34,1.59,166.2
"2016-01-20 00:08:00",1300267,7.543,204.5,6.978,1.245,7.79,100.6098,0.855,2.034,56,0,109.7,13.34,1.61,166.5
"2016-01-20 00:08:30",1300268,7.251,207,6.915,1.297,7.981,100.6095,0.855,2.091,55.95,0,109.7,13.34,1.61,169.0
"2016-01-20 00:09:00",1300269,6.429,202.1,6.274,1.29,6.442,100.6112,0.859,1.957,55.78,0,109.7,13.34,1.61,164.1
"2016-01-20 00:09:30",1300270,6.756,204.9,6.98,1.343,7.632,100.6109,0.858,2.023,55.8,0,109.7,13.34,1.61,166.9
"2016-01-20 00:10:00",1300271,6.813,205.9,6.906,1.357,7.334,100.6112,0.859,2.005,55.74,0,109.7,13.34,1.61,167.9
"2016-01-20 00:10:30",1300272,6.886,206.7,6.711,1.302,8.09,100.6112,0.859,2.082,55.83,0,109.7,13.34,1.61,168.7
"2016-01-20 00:11:00",1300273,7.052,206.6,6.594,1.32,8.48,100.6174,0.875,2.098,55.75,0,109.7,13.34,1.63,168.6
"2016-01-20 00:11:30",1300274,6.776,205.9,6.815,1.311,8.04,100.6254,0.895,2.092,55.69,0,109.7,13.35,1.65,167.9
"2016-01-20 00:12:00",1300275,6.424,204.6,7.083,1.352,7.253,100.6262,0.897,2.113,55.64,0,109.7,13.34,1.65,166.6
"2016-01-20 00:12:30",1300276,6.198,203.3,6.943,1.275,7.003,100.6262,0.897,2.041,55.55,0,109.7,13.34,1.65,165.3
"2016-01-20 00:13:00",1300277,6.376,204.2,7.055,1.357,7.568,100.6307,0.909,2.095,55.5,0,109.7,13.35,1.66,166.2
"2016-01-20 00:13:30",1300278,6.164,203.1,6.494,1.316,6.426,100.6375,0.926,2.015,55.38,0,109.7,13.35,1.68,165.1
"2016-01-20 00:14:00",1300279,6.776,206.2,7.15,1.318,7.825,100.6421,0.938,2.131,55.42,0,109.7,13.35,1.69,168.2
"2016-01-20 00:14:30",1300280,7.046,211.1,7.011,1.35,8.29,100.6452,0.946,2.173,55.4,0,109.7,13.35,1.70,173.1
"2016-01-20 00:15:00",1300281,7.235,211,6.663,1.248,8.76,100.6452,0.946,2.203,55.44,0,109.7,13.35,1.70,173.0
"2016-01-20 00:15:30",1300282,6.661,208.1,7.125,1.366,7.362,100.6452,0.946,2.123,55.29,0,109.7,13.35,1.70,170.1
"2016-01-20 00:16:00",1300283,6.588,208.1,7.326,1.343,7.447,100.6452,0.946,2.11,55.21,0,109.7,13.36,1.70,170.1
"2016-01-20 00:16:30",1300284,6.705,211.2,6.679,1.369,7.349,100.6452,0.946,2.106,55.17,0,109.7,13.35,1.70,173.2
"2016-01-20 00:17:00",1300285,6.582,208,6.91,1.349,7.512,100.6452,0.946,2.154,55.16,0,109.7,13.36,1.70,170.0
"2016-01-20 00:17:30",1300286,7.253,212.3,6.87,1.291,8.5,100.6457,0.947,2.221,55.16,0,109.7,13.36,1.70,174.3
"2016-01-20 00:18:00",1300287,7.202,214.8,6.198,1.254,9.19,100.6491,0.956,2.247,55.19,0,109.7,13.36,1.71,176.8
"2016-01-20 00:18:30",1300288,7.499,214.3,6.444,1.2,9.22,100.6582,0.979,2.268,55.17,0,109.7,13.36,1.73,176.3
"2016-01-20 00:19:00",1300289,7.547,213.2,6.442,1.212,9.12,100.6621,0.989,2.277,55.14,0,109.7,13.36,1.74,175.2
"2016-01-20 00:19:30",1300290,6.952,212.4,6.931,1.274,8.14,100.6675,1.003,2.235,55.08,0,109.7,13.36,1.76,174.4
"2016-01-20 00:20:00",1300291,6.143,207.2,5.875,1.124,6.186,100.6768,1.026,2.091,54.93,0,109.7,13.36,1.78,169.2
"2016-01-20 00:20:30",1300292,6.29,207.1,6.235,1.165,6.051,100.6794,1.033,2.076,54.89,0,109.7,13.36,1.79,169.1
"2016-01-20 00:21:00",1300293,7.032,210,7.105,1.371,7.803,100.6797,1.034,2.242,55.08,0,109.7,13.36,1.79,172.0
"2016-01-20 00:21:30",1300294,7.523,214.4,6.4,1.295,9.14,100.6811,1.037,2.276,55.16,0,109.7,13.36,1.79,176.4
"2016-01-20 00:22:00",1300295,7.473,215.1,6.621,1.264,8.86,100.6817,1.039,2.296,55.16,0,109.7,13.36,1.79,177.1
"2016-01-20 00:22:30",1300296,7.194,214.9,6.66,1.289,8.53,100.6856,1.049,2.298,55.18,0,109.7,13.36,1.80,176.9
"2016-01-20 00:23:00",1300297,7.262,215.4,6.62,1.225,8.57,100.6927,1.067,2.304,55.24,0,109.7,13.36,1.82,177.4
"2016-01-20 00:23:30",1300298,6.144,209.9,6.077,1.211,6.639,100.6998,1.085,2.279,55.19,0,109.7,13.36,1.84,171.9
"2016-01-20 00:24:00",1300299,6.788,213.5,7.022,1.341,7.361,100.7049,1.098,2.218,55.15,0,109.7,13.36,1.85,175.5
"2016-01-20 00:24:30",1300300,5.873,211.1,5.541,1.027,6.323,100.7049,1.098,2.198,55.1,0,109.7,13.36,1.85,173.1
"2016-01-20 00:25:00",1300301,6.911,218.1,6.741,1.307,8.45,100.7134,1.12,2.343,55.2,0,109.7,13.36,1.88,180.1
"2016-01-20 00:25:30",1300302,6.865,219.4,6.68,1.316,8.72,100.7222,1.142,2.348,55.15,0,109.7,13.35,1.90,181.4
"2016-01-20 00:26:00",1300303,6.983,222.2,6.343,1.297,8.84,100.7259,1.152,2.405,55.15,0,109.7,13.35,1.91,184.2
"2016-01-20 00:26:30",1300304,6.507,219.8,7.129,1.367,7.682,100.7287,1.159,2.396,55.07,0,109.7,13.35,1.91,181.8
"2016-01-20 00:27:00",1300305,6.371,219.4,6.947,1.377,7.085,100.7296,1.161,2.255,54.91,0,109.7,13.36,1.92,181.4
"2016-01-20 00:27:30",1300306,5.887,217.9,6.378,1.162,6.339,100.7287,1.159,2.258,54.91,0,109.7,13.35,1.91,179.9
"2016-01-20 00:28:00",1300307,6.943,221.6,6.808,1.331,8.51,100.7293,1.16,2.404,55.06,0,109.7,13.35,1.92,183.6
"2016-01-20 00:28:30",1300308,6.882,220.1,6.96,1.33,8.17,100.7313,1.165,2.339,55.01,0,109.7,13.35,1.92,182.1
"2016-01-20 00:29:00",1300309,7.257,220.9,6.476,1.322,8.43,100.7421,1.193,2.42,55.06,0,109.7,13.35,1.95,182.9
"2016-01-20 00:29:30",1300310,7.296,222.8,6.504,1.278,9.01,100.7474,1.206,2.431,55.03,0,109.7,13.36,1.96,184.8
"2016-01-20 00:30:00",1300311,6.9,221.1,7.335,1.339,8.15,100.7483,1.209,2.437,55.05,0,109.7,13.36,1.96,183.1
"2016-01-20 00:30:30",1300312,6.52,221.3,6.988,1.324,6.893,100.7525,1.219,2.321,54.92,0,109.7,13.36,1.98,183.3
"2016-01-20 00:31:00",1300313,6.789,223.7,7.176,1.396,7.524,100.7625,1.245,2.397,54.94,0,109.7,13.36,2.00,185.7
"2016-01-20 00:31:30",1300314,6.703,223.9,6.902,1.304,7.471,100.7676,1.258,2.416,54.88,0,109.7,13.36,2.01,185.9
"2016-01-20 00:32:00",1300315,7.153,228.8,6.934,1.289,8.69,100.7687,1.261,2.498,54.93,0,109.7,13.36,2.02,190.8
"2016-01-20 00:32:30",1300316,7.138,227.6,6.669,1.321,8.86,100.7693,1.262,2.483,54.89,0,109.7,13.36,2.02,189.6
"2016-01-20 00:33:00",1300317,7.087,226.1,6.804,1.343,8.62,100.7721,1.269,2.486,54.89,0,109.7,13.36,2.03,188.1
"2016-01-20 00:33:30",1300318,6.804,225.5,7.123,1.319,8.01,100.7724,1.27,2.458,54.84,0,109.7,13.36,2.03,187.5
"2016-01-20 00:34:00",1300319,6.254,221.2,7.273,1.295,7.089,100.7806,1.291,2.456,54.83,0,109.7,13.36,2.05,183.2
"2016-01-20 00:34:30",1300320,6.537,221.5,7.438,1.377,7.335,100.7866,1.306,2.419,54.73,0,109.7,13.36,2.06,183.5
"2016-01-20 00:35:00",1300321,7.062,227.7,7.931,1.347,8.65,100.79,1.315,2.507,54.79,0,109.7,13.36,2.07,189.7
"2016-01-20 00:35:30",1300322,7.045,224,6.599,1.279,8.59,100.7902,1.316,2.549,54.75,0,109.7,13.36,2.07,186.0
"2016-01-20 00:36:00",1300323,7.2,223.2,6.633,1.284,8.74,100.7936,1.324,2.534,54.61,0,109.7,13.36,2.08,185.2
"2016-01-20 00:36:30",1300324,6.656,221.8,6.815,1.383,7.427,100.7985,1.337,2.498,54.35,0,109.7,13.36,2.09,183.8
"2016-01-20 00:37:00",1300325,6.01,226.7,6.715,1.169,6.42,100.805,1.353,2.48,54.36,0,109.7,13.36,2.11,188.7
"2016-01-20 00:37:30",1300326,7.102,226.9,7.791,1.292,8.12,100.8089,1.363,2.469,54.44,0,109.7,13.37,2.12,188.9
"2016-01-20 00:38:00",1300327,6.844,228.3,6.61,1.339,8.46,100.8118,1.371,2.551,54.51,0,109.7,13.36,2.13,190.3
"2016-01-20 00:38:30",1300328,6.993,229.2,7.175,1.312,8.98,100.8106,1.368,2.581,54.61,0,109.7,13.36,2.12,191.2
"2016-01-20 00:39:00",1300329,7.085,230.8,6.306,1.236,8.97,100.8112,1.369,2.587,54.64,0,109.7,13.37,2.13,192.8
"2016-01-20 00:39:30",1300330,6.395,224.3,7.181,1.329,7.83,100.8126,1.373,2.493,54.43,0,109.7,13.37,2.13,186.3
"2016-01-20 00:40:00",1300331,6.674,222.2,7.248,1.341,7.452,100.8124,1.372,2.53,54.28,0,109.7,13.37,2.13,184.2
"2016-01-20 00:40:30",1300332,6.648,220.1,7.96,1.351,7.338,100.8121,1.371,2.539,54.09,0,109.7,13.37,2.13,182.1
"2016-01-20 00:41:00",1300333,6.642,218.7,6.963,1.34,7.83,100.8135,1.375,2.538,53.91,0,109.7,13.37,2.13,180.7
"2016-01-20 00:41:30",1300334,7.167,220.9,6.639,1.316,8.5,100.8124,1.372,2.59,53.8,0,109.7,13.36,2.13,182.9
"2016-01-20 00:42:00",1300335,7.175,219.8,7.144,1.321,8.3,100.8135,1.375,2.602,53.78,0,109.7,13.36,2.13,181.8
"2016-01-20 00:42:30",1300336,7.334,221.5,6.579,1.281,8.45,100.8129,1.374,2.603,53.75,0,109.7,13.36,2.13,183.5
"2016-01-20 00:43:00",1300337,7.378,221.8,6.792,1.322,8.17,100.8138,1.376,2.615,53.76,0,109.7,13.36,2.13,183.8
"2016-01-20 00:43:30",1300338,6.547,223.3,7.91,1.286,7.014,100.8138,1.376,2.549,53.96,0,109.7,13.36,2.13,185.3
"2016-01-20 00:44:00",1300339,7.315,226.2,6.711,1.253,8.28,100.8152,1.379,2.548,54.04,0,109.7,13.36,2.14,188.2
"2016-01-20 00:44:30",1300340,6.696,224.1,7.525,1.335,7.654,100.8146,1.378,2.568,54,0,109.7,13.36,2.13,186.1
"2016-01-20 00:45:00",1300341,7.068,228.5,6.955,1.363,8.44,100.8152,1.379,2.622,54.15,0,109.7,13.36,2.14,190.5
"2016-01-20 00:45:30",1300342,7.072,227.4,6.817,1.342,9.07,100.8149,1.379,2.655,54.22,0,109.7,13.36,2.14,189.4
"2016-01-20 00:46:00",1300343,6.891,228.9,8.11,1.339,8.06,100.8152,1.379,2.627,54.07,0,109.7,13.36,2.14,190.9
"2016-01-20 01:01:30",1300374,6.499,228.7,7.162,1.342,8.31,100.8161,1.382,2.647,53.46,0,109.7,13.37,2.14,190.7
"2016-01-20 01:02:00",1300375,6.618,228.2,7.008,1.332,8.41,100.8152,1.379,2.674,53.46,0,109.7,13.36,2.14,190.2
"2016-01-20 01:02:30",1300376,6.805,228.3,6.611,1.302,8.85,100.8152,1.379,2.684,53.45,0,109.7,13.37,2.14,190.3
"2016-01-20 01:03:00",1300377,6.651,226.2,7.205,1.3,8.08,100.8152,1.379,2.59,53.33,0,109.7,13.37,2.14,188.2
"2016-01-20 01:03:30",1300378,5.721,222.2,6.616,1.164,6.404,100.8152,1.379,2.565,53.32,0,109.7,13.37,2.14,184.2
"2016-01-20 01:04:00",1300379,6.411,224.8,6.901,1.374,7.812,100.8152,1.379,2.621,53.34,0,109.7,13.37,2.14,186.8
"2016-01-20 01:04:30",1300380,6.612,225.3,7.032,1.342,8.52,100.8152,1.379,2.576,53.33,0,109.7,13.37,2.14,187.3
"2016-01-20 01:05:00",1300381,6.614,224.6,7.616,1.347,8.6,100.8152,1.379,2.664,53.44,0,109.7,13.37,2.14,186.6
"2016-01-20 01:05:30",1300382,6.438,221.4,6.635,1.289,8.33,100.8152,1.379,2.701,53.48,0,109.7,13.37,2.14,183.4
"2016-01-20 01:06:00",1300383,5.981,217.2,6.478,1.328,7.939,100.8152,1.379,2.61,53.44,0,109.7,13.37,2.14,179.2
"2016-01-20 01:06:30",1300384,5.392,214.5,7.451,1.305,6.734,100.8152,1.379,2.634,53.55,0,109.7,13.37,2.14,176.5
"2016-01-20 01:07:00",1300385,5.302,213,6.587,1.173,6.278,100.8152,1.379,2.546,53.55,0,109.7,13.37,2.14,175.0
"2016-01-20 01:07:30",1300386,6.425,217.1,7.225,1.286,8.56,100.8155,1.38,2.681,53.74,0,109.7,13.37,2.14,179.1
"2016-01-20 01:08:00",1300387,6.556,214.8,6.611,1.284,8.5,100.8155,1.38,2.674,53.77,0,109.7,13.37,2.14,176.8
"2016-01-20 01:08:30",1300388,5.953,208.2,7.004,1.294,6.874,100.8152,1.379,2.618,53.67,0,109.7,13.37,2.14,170.2
"2016-01-20 01:09:00",1300389,6.048,210.1,7.638,1.364,7.405,100.8152,1.379,2.63,53.67,0,109.7,13.37,2.14,172.1
"2016-01-20 01:09:30",1300390,5.554,208.4,7.092,1.358,6.453,100.8149,1.379,2.521,53.55,0,109.7,13.37,2.14,170.4
"2016-01-20 01:10:00",1300391,5.589,211.3,6.666,1.339,6.92,100.8107,1.368,2.535,53.64,0,109.7,13.37,2.12,173.3
"2016-01-20 01:10:30",1300392,6.337,215.1,6.901,1.294,8.19,100.8013,1.344,2.645,53.77,0,109.7,13.37,2.10,177.1
"2016-01-20 01:11:00",1300393,6.372,218.5,6.445,1.29,7.933,100.7982,1.336,2.588,53.73,0,109.7,13.37,2.09,180.5
"2016-01-20 01:11:30",1300394,5.813,213.8,6.781,1.344,6.576,100.7957,1.33,2.523,53.73,0,109.7,13.38,2.09,175.8
"2016-01-20 01:12:00",1300395,5.429,216.2,7.354,1.268,6.603,100.7858,1.304,2.548,53.78,0,109.7,13.38,2.06,178.2
"2016-01-20 01:12:30",1300396,5.64,217,7.169,1.374,6.763,100.7813,1.293,2.536,53.82,0,109.7,13.38,2.05,179.0
"2016-01-20 01:13:00",1300397,5.997,217.5,6.84,1.34,7.508,100.7815,1.293,2.599,53.91,0,109.6,13.38,2.05,179.5
"2016-01-20 01:13:30",1300398,6.152,219,6.527,1.335,7.836,100.7818,1.294,2.558,53.95,0,109.7,13.38,2.05,181.0
"2016-01-20 01:14:00",1300399,6.402,219,6.972,1.333,7.775,100.7813,1.293,2.541,53.94,0,109.6,13.38,2.05,181.0
"2016-01-20 01:14:30",1300400,6.032,217.7,6.652,1.388,7.143,100.7708,1.266,2.498,53.94,0,109.7,13.38,2.02,179.7
"2016-01-20 01:15:00",1300401,5.804,218,7.044,1.378,6.852,100.7643,1.249,2.506,54.01,0,109.6,13.38,2.01,180.0
"2016-01-20 01:15:30",1300402,5.711,216.6,6.613,1.325,6.394,100.7589,1.236,2.446,53.99,0,109.7,13.38,1.99,178.6
"2016-01-20 01:16:00",1300403,6.485,221.4,6.892,1.286,8.34,100.7507,1.215,2.577,54.15,0,109.7,13.37,1.97,183.4
"2016-01-20 01:16:30",1300404,6.329,218.5,6.894,1.355,7.737,100.7501,1.213,2.494,54.12,0,109.7,13.37,1.97,180.5
"2016-01-20 01:17:00",1300405,5.851,214.7,6.633,1.365,7.067,100.7501,1.213,2.472,54.16,0,109.7,13.38,1.97,176.7
"2016-01-20 01:17:30",1300406,6.067,213.2,7.01,1.342,7.42,100.7496,1.212,2.443,54.19,0,109.7,13.37,1.97,175.2
"2016-01-20 01:18:00",1300407,5.632,211.9,6.645,1.294,6.282,100.7456,1.202,2.372,54.15,0,109.7,13.37,1.96,173.9
"2016-01-20 01:18:30",1300408,5.963,214.1,6.801,1.389,7.693,100.7363,1.178,2.459,54.24,0,109.7,13.37,1.93,176.1
"2016-01-20 01:19:00",1300409,6.469,215.8,6.735,1.315,8.56,100.7312,1.165,2.479,54.28,0,109.7,13.37,1.92,177.8
"2016-01-20 01:19:30",1300410,6.14,213.3,6.994,1.363,7.525,100.7218,1.141,2.47,54.3,0,109.7,13.38,1.90,175.3
"2016-01-20 01:20:00",1300411,6.81,215.7,6.139,1.199,8.54,100.7204,1.138,2.417,54.28,0,109.7,13.38,1.89,177.7
"2016-01-20 01:20:30",1300412,5.747,211.4,6.685,1.322,6.354,100.7216,1.141,2.317,54.18,0,109.7,13.38,1.90,173.4
"2016-01-20 01:21:00",1300413,5.976,214.2,6.859,1.337,7.364,100.7193,1.135,2.388,54.3,0,109.7,13.38,1.89,176.2
"2016-01-20 01:21:30",1300414,6.242,215.9,6.824,1.367,8.14,100.723,1.144,2.421,54.38,0,109.7,13.38,1.90,177.9
"2016-01-20 01:22:00",1300415,6.311,216.9,6.553,1.324,8.07,100.7182,1.132,2.393,54.39,0,109.7,13.38,1.89,178.9
"2016-01-20 01:22:30",1300416,6.066,215.6,6.947,1.371,7.443,100.7063,1.102,2.376,54.42,0,109.7,13.38,1.86,177.6
"2016-01-20 01:23:00",1300417,5.815,216.6,6.711,1.367,7.288,100.7001,1.086,2.342,54.47,0,109.7,13.38,1.84,178.6
"2016-01-20 01:23:30",1300418,5.463,213.4,6.783,1.292,6.627,100.6916,1.064,2.252,54.44,0,109.7,13.38,1.82,175.4
"2016-01-20 01:24:00",1300419,5.78,217.9,7.348,1.383,7.849,100.6879,1.055,2.358,54.61,0,109.7,13.38,1.81,179.9
"2016-01-20 01:24:30",1300420,5.828,219.1,7.223,1.371,7.784,100.6862,1.05,2.332,54.56,0,109.7,13.38,1.81,181.1
"2016-01-20 01:25:00",1300421,5.921,222,6.826,1.325,7.806,100.6882,1.055,2.324,54.53,0,109.7,13.38,1.81,184.0
"2016-01-20 01:25:30",1300422,5.582,219.3,6.967,1.335,7.095,100.6899,1.06,2.271,54.47,0,109.7,13.38,1.82,181.3
"2016-01-20 01:26:00",1300423,4.786,215.8,6.454,1.253,6.23,100.6893,1.058,2.214,54.44,0,109.7,13.39,1.81,177.8
"2016-01-20 01:26:30",1300424,5.23,216.4,6.95,1.325,7.591,100.6885,1.056,2.288,54.56,0,109.7,13.38,1.81,178.4
"2016-01-20 01:27:00",1300425,5.343,215.6,7.437,1.377,7.593,100.691,1.063,2.247,54.54,0,109.7,13.38,1.82,177.6
"2016-01-20 01:27:30",1300426,5.733,218.5,6.907,1.328,8.01,100.6885,1.056,2.301,54.6,0,109.6,13.38,1.81,180.5
"2016-01-20 01:28:00",1300427,5.606,218.2,6.948,1.342,7.723,100.6834,1.043,2.278,54.61,0,109.7,13.39,1.80,180.2
"2016-01-20 01:28:30",1300428,5.422,216.2,7.171,1.329,7.035,100.6783,1.03,2.237,54.55,0,109.7,13.39,1.79,178.2
"2016-01-20 01:29:00",1300429,4.876,215.6,6.76,1.289,6.399,100.6766,1.026,2.275,54.59,0,109.7,13.39,1.78,177.6
"2016-01-20 01:29:30",1300430,5.285,215.4,6.752,1.31,6.881,100.6769,1.027,2.214,54.57,0,109.7,13.38,1.78,177.4
"2016-01-20 01:30:00",1300431,5.504,215.7,7.136,1.349,7.03,100.6761,1.024,2.223,54.61,0,109.7,13.39,1.78,177.7
"2016-01-20 01:30:30",1300432,5.862,217.1,6.439,1.291,8.04,100.6755,1.023,2.263,54.68,0,109.7,13.38,1.78,179.1
"2016-01-20 01:31:00",1300433,5.04,213.1,6.513,1.312,6.52,100.6698,1.009,2.183,54.71,0,109.7,13.38,1.76,175.1
"2016-01-20 01:31:30",1300434,5.121,208.2,6.92,1.306,6.293,100.6664,1,2.176,54.73,0,109.7,13.38,1.76,170.2
"2016-01-20 01:32:00",1300435,4.998,206,6.461,1.258,6.633,100.6625,0.99,2.246,54.87,0,109.7,13.38,1.75,168.0
"2016-01-20 01:32:30",1300436,5.196,207.9,6.714,1.36,7.199,100.6625,0.99,2.212,54.92,0,109.7,13.38,1.75,169.9
"2016-01-20 01:33:00",1300437,5.382,209.4,6.848,1.292,7.97,100.6625,0.99,2.258,55.01,0,109.7,13.38,1.75,171.4
"2016-01-20 01:33:30",1300438,5.353,204.9,7.478,1.302,7.248,100.6625,0.99,2.218,54.94,0,109.7,13.38,1.75,166.9
"2016-01-20 01:34:00",1300439,5.487,202,6.742,1.39,7.127,100.6625,0.99,2.206,54.99,0,109.7,13.38,1.75,164.0
"2016-01-20 01:34:30",1300440,4.89,202.5,6.58,1.246,6.183,100.6613,0.987,2.215,55.08,0,109.7,13.38,1.74,164.5
"2016-01-20 01:35:00",1300441,5.238,207,6.961,1.341,6.897,100.6562,0.974,2.165,55.04,0,109.7,13.38,1.73,169.0
"2016-01-20 01:35:30",1300442,5.368,209.5,7.306,1.394,7.745,100.6469,0.95,2.23,55.1,0,109.7,13.38,1.71,171.5
"2016-01-20 01:36:00",1300443,5.654,212.2,7.225,1.344,7.767,100.6449,0.945,2.218,55.18,0,109.7,13.38,1.70,174.2
"2016-01-20 01:36:30",1300444,5.313,209.5,6.998,1.335,6.742,100.6458,0.947,2.12,55.14,0,109.7,13.38,1.70,171.5
"2016-01-20 01:37:00",1300445,5.533,210.2,7.283,1.378,6.114,100.639,0.93,2.141,55.19,0,109.7,13.39,1.69,172.2
"2016-01-20 01:37:30",1300446,5.718,211.5,7.068,1.378,6.991,100.6313,0.91,2.137,55.27,0,109.7,13.39,1.67,173.5
"2016-01-20 01:38:00",1300447,5.757,212.2,6.846,1.386,7.004,100.6288,0.904,2.132,55.3,0,109.7,13.39,1.66,174.2
"2016-01-20 01:38:30",1300448,5.641,216.3,7.592,1.316,7.905,100.6291,0.905,2.237,55.45,0,109.7,13.39,1.66,178.3
"2016-01-20 01:39:00",1300449,5.67,222.3,6.671,1.305,7.865,100.6299,0.907,2.193,55.4,0,109.7,13.39,1.66,184.3
"2016-01-20 01:39:30",1300450,5.304,218,6.852,1.369,6.972,100.6302,0.907,2.158,55.41,0,109.7,13.39,1.66,180.0
"2016-01-20 01:40:00",1300451,5.335,215.6,7.463,1.307,6.461,100.6305,0.908,2.081,55.4,0,109.7,13.39,1.66,177.6
"2016-01-20 01:40:30",1300452,5.319,216.2,7.313,1.325,6.717,100.6305,0.908,2.129,55.52,0,109.7,13.39,1.66,178.2
"2016-01-20 01:41:00",1300453,5.622,219.4,7.486,1.287,7.355,100.6257,0.896,2.147,55.58,0,109.7,13.39,1.65,181.4
"2016-01-20 01:41:30",1300454,5.635,221,7.392,1.315,8.07,100.6166,0.873,2.18,55.64,0,109.7,13.39,1.63,183.0
"2016-01-20 01:42:00",1300455,4.991,215.2,7.211,1.298,6.374,100.6112,0.859,2.098,55.6,0,109.7,13.39,1.61,177.2
"2016-01-20 01:42:30",1300456,5.217,219.6,6.454,1.349,6.896,100.6078,0.85,2.099,55.73,0,109.7,13.39,1.61,181.6
"2016-01-20 01:43:00",1300457,5.592,226.3,7.37,1.372,7.158,100.6098,0.855,2.097,55.71,0,109.7,13.39,1.61,188.3
"2016-01-20 01:43:30",1300458,5.418,227.9,6.978,1.358,7.342,100.6073,0.849,2.112,55.67,0,109.7,13.39,1.60,189.9
"2016-01-20 01:44:00",1300459,5.721,227.7,6.854,1.345,7.7,100.6022,0.836,2.047,55.54,0,109.7,13.39,1.59,189.7
"2016-01-20 01:44:30",1300460,5.646,223.2,6.766,1.284,7.92,100.5991,0.828,2.091,55.67,0,109.7,13.39,1.58,185.2
"2016-01-20 01:45:00",1300461,5.086,222.6,6.885,1.32,6.773,100.5988,0.827,2.042,55.73,0,109.7,13.39,1.58,184.6
"2016-01-20 01:45:30",1300462,5.01,217,7.306,1.337,6.166,100.5999,0.83,1.971,55.7,0,109.7,13.39,1.59,179.0
"2016-01-20 01:46:00",1300463,4.84,223.2,7.042,1.304,6.147,100.6005,0.832,2.063,55.84,0,109.7,13.39,1.59,185.2
"2016-01-20 01:46:30",1300464,5.178,223.9,5.727,1.309,7.325,100.6014,0.834,2.046,55.84,0,109.7,13.39,1.59,185.9
"2016-01-20 01:47:00",1300465,5.519,228.3,6.682,1.327,8.05,100.6008,0.832,2.079,55.85,0,109.7,13.39,1.59,190.3
"2016-01-20 01:47:30",1300466,5.089,222.4,8.17,1.317,6.935,100.5937,0.814,2.037,55.79,0,109.7,13.39,1.57,184.4
"2016-01-20 01:48:00",1300467,5.392,218.2,8.37,1.361,6.791,100.5883,0.801,1.974,55.81,0,109.7,13.38,1.56,180.2
"2016-01-20 01:48:30",1300468,5.388,218.3,7.04,1.374,6.839,100.5838,0.789,2.036,55.97,0,109.7,13.38,1.54,180.3
"2016-01-20 01:49:00",1300469,5.654,214,7.508,1.312,7.3,100.5844,0.791,2.04,56.06,0,109.7,13.38,1.55,176.0
"2016-01-20 01:49:30",1300470,5.216,215.2,7.656,1.33,6.92,100.5835,0.788,2.017,56.06,0,109.7,13.38,1.54,177.2
"2016-01-20 01:50:00",1300471,5.36,219.4,6.701,1.435,7.176,100.5793,0.778,2.023,56.06,0,109.7,13.38,1.53,181.4
"2016-01-20 01:50:30",1300472,5.253,220.5,7.116,1.363,6.994,100.5748,0.766,2.018,56.12,0,109.7,13.38,1.52,182.5
"2016-01-20 01:51:00",1300473,5.107,219.4,9.84,1.269,6.31,100.5697,0.753,1.951,56.12,0,109.7,13.38,1.51,181.4
"2016-01-20 01:51:30",1300474,5.256,221.2,7.514,1.413,6.514,100.5688,0.751,1.966,56.19,0,109.7,13.38,1.51,183.2
"2016-01-20 01:52:00",1300475,5.249,220.4,8.21,1.452,7.043,100.5691,0.752,2.042,56.33,0,109.7,13.38,1.51,182.4
"2016-01-20 01:52:30",1300476,5.466,223.7,8.23,1.34,7.974,100.5691,0.752,2.044,56.37,0,109.7,13.38,1.51,185.7
"2016-01-20 01:53:00",1300477,5.276,216.1,8.15,1.355,7.199,100.5688,0.751,1.977,56.33,0,109.7,13.39,1.51,178.1
"2016-01-20 01:53:30",1300478,5.369,214.4,7.501,1.313,6.945,100.5694,0.752,1.917,56.3,0,109.7,13.39,1.51,176.4
"2016-01-20 01:54:00",1300479,4.745,212.7,6.729,1.285,5.86,100.5688,0.751,1.997,56.35,0,109.7,13.39,1.51,174.7
"2016-01-20 01:54:30",1300480,5.419,217.3,7.958,1.363,6.711,100.5691,0.752,1.928,56.34,0,109.7,13.39,1.51,179.3
"2016-01-20 01:55:00",1300481,5.052,217.9,7.089,1.384,6.835,100.5668,0.746,1.966,56.41,0,109.7,13.39,1.50,179.9
"2016-01-20 01:55:30",1300482,5.435,221.1,7.395,1.311,7.474,100.564,0.739,1.984,56.49,0,109.7,13.39,1.49,183.1
"2016-01-20 01:56:00",1300483,4.681,215.8,5.891,1.198,6.079,100.5572,0.721,1.942,56.47,0,109.7,13.39,1.48,177.8
"2016-01-20 01:56:30",1300484,5.23,215.2,5.809,1.421,6.771,100.5524,0.709,1.971,56.5,0,109.7,13.39,1.46,177.2
"2016-01-20 01:57:00",1300485,5.088,218.5,8.97,1.342,6.91,100.5524,0.709,1.915,56.49,0,109.7,13.39,1.46,180.5
"2016-01-20 01:57:30",1300486,5.191,214.4,6.396,1.305,6.737,100.5527,0.71,1.887,56.51,0,109.7,13.39,1.46,176.4
"2016-01-20 01:58:00",1300487,5.814,215.9,7.091,1.292,8.02,100.5493,0.701,2.006,56.64,0,109.7,13.39,1.46,177.9
"2016-01-20 01:58:30",1300488,5.082,213.6,6.711,1.351,6.877,100.5456,0.692,1.942,56.6,0,109.7,13.39,1.45,175.6
"2016-01-20 01:59:00",1300489,4.989,213,7.103,1.283,6.213,100.5405,0.679,1.878,56.6,0,109.7,13.39,1.43,175.0
"2016-01-20 01:59:30",1300490,5.051,217.1,7.365,1.399,6.512,100.5377,0.671,1.925,56.69,0,109.7,13.39,1.43,179.1
"2016-01-20 02:00:00",1300491,4.988,212,6.989,1.303,6.335,100.5377,0.671,1.878,56.67,0,109.7,13.39,1.43,174.0
"2016-01-20 02:00:30",1300492,5.24,209.8,8.19,1.355,6.798,100.5377,0.671,1.857,56.6,0,109.7,13.39,1.43,171.8
"2016-01-20 02:01:00",1300493,5.74,210.9,7.31,1.335,7.445,100.5388,0.674,1.957,56.5,0,109.7,13.39,1.43,172.9
"2016-01-20 02:01:30",1300494,5.291,206.2,6.762,1.349,6.31,100.5402,0.678,1.867,56.21,0,109.7,13.39,1.43,168.2
"2016-01-20 02:02:00",1300495,5.292,203.3,7.002,1.239,6.036,100.5382,0.673,1.843,55.97,0,109.7,13.4,1.43,165.3
"2016-01-20 02:02:30",1300496,5.758,204.7,6.847,1.323,6.726,100.5371,0.67,1.876,55.9,0,109.7,13.39,1.42,166.7